Time,TemperatureF,DewpointF,PressureIn,WindDirection,WindDirectionDegrees,WindSpeedMPH,WindSpeedGustMPH,Humidity,HourlyPrecipIn,Conditions,Clouds,dailyrainin,SoftwareType,DateUTC
2013-10-12 00:02:00,54.0,52.0,30.37,NE,45,2.0,2.0,93,0.00,,,0.00,Weather View 32 v70,2013-10-12 04:02:00,
2013-10-12 00:07:00,54.0,52.0,30.37,NE,45,2.0,2.0,93,0.00,,,0.00,Weather View 32 v70,2013-10-12 04:07:00,
2013-10-12 00:12:00,54.0,51.7,30.37,NE,45,0.0,2.0,92,0.00,,,0.00,Weather View 32 v70,2013-10-12 04:12:00,
2013-10-12 00:22:00,53.0,50.7,30.39,NNE,22,3.0,3.0,92,0.00,,,0.00,Weather View 32 v70,2013-10-12 04:22:00,
2013-10-12 00:31:00,53.0,51.3,30.38,NE,45,2.0,3.0,94,0.00,,,0.00,Weather View 32 v70,2013-10-12 04:31:00,
2013-10-12 00:51:00,54.0,52.6,30.35,ENE,67,1.0,3.0,95,0.00,,,0.00,Weather View 32 v70,2013-10-12 04:51:00,
2013-10-12 00:56:00,54.0,52.3,30.36,NE,45,1.0,3.0,94,0.00,,,0.00,Weather View 32 v70,2013-10-12 04:56:00,
2013-10-12 01:01:00,54.0,52.3,30.36,NNE,22,0.0,3.0,94,0.00,,,0.00,Weather View 32 v70,2013-10-12 05:01:00,
2013-10-12 01:10:00,53.0,51.6,30.36,ENE,67,2.0,3.0,95,0.00,,,0.00,Weather View 32 v70,2013-10-12 05:10:00,
2013-10-12 01:15:00,54.0,52.9,30.36,NNE,22,4.0,4.0,96,0.00,,,0.00,Weather View 32 v70,2013-10-12 05:15:00,
2013-10-12 01:20:00,54.0,52.6,30.34,NE,45,1.0,4.0,95,0.00,,,0.00,Weather View 32 v70,2013-10-12 05:20:00,
2013-10-12 01:36:00,54.0,52.6,30.37,NE,45,3.0,4.0,95,0.00,,,0.00,Weather View 32 v70,2013-10-12 05:36:00,
2013-10-12 01:43:00,53.0,51.3,30.37,NNE,22,4.0,4.0,94,0.00,,,0.00,Weather View 32 v70,2013-10-12 05:43:00,
2013-10-12 01:48:00,53.0,51.3,30.37,NE,45,2.0,4.0,94,0.00,,,0.00,Weather View 32 v70,2013-10-12 05:48:00,
2013-10-12 01:53:00,53.0,51.3,30.37,NNE,22,3.0,4.0,94,0.00,,,0.00,Weather View 32 v70,2013-10-12 05:53:00,
2013-10-12 02:00:00,53.0,51.6,30.37,NNE,22,0.0,4.0,95,0.00,,,0.00,Weather View 32 v70,2013-10-12 06:00:00,
2013-10-12 02:05:00,53.0,51.3,30.37,NNE,22,1.0,4.0,94,0.00,,,0.00,Weather View 32 v70,2013-10-12 06:05:00,
2013-10-12 02:10:00,52.0,50.6,30.37,NE,45,1.0,4.0,95,0.00,,,0.00,Weather View 32 v70,2013-10-12 06:10:00,
2013-10-12 02:22:00,52.0,50.6,30.36,NNE,22,2.0,4.0,95,0.00,,,0.00,Weather View 32 v70,2013-10-12 06:22:00,
2013-10-12 02:32:00,52.0,51.2,30.37,NE,45,3.0,4.0,97,0.00,,,0.00,Weather View 32 v70,2013-10-12 06:32:00,
2013-10-12 02:37:00,52.0,51.2,30.37,NE,45,2.0,4.0,97,0.00,,,0.00,Weather View 32 v70,2013-10-12 06:37:00,
2013-10-12 02:43:00,52.0,51.5,30.37,ENE,67,1.0,4.0,98,0.00,,,0.00,Weather View 32 v70,2013-10-12 06:43:00,
2013-10-12 02:48:00,52.0,51.2,30.37,NNE,22,1.0,4.0,97,0.00,,,0.00,Weather View 32 v70,2013-10-12 06:48:00,
2013-10-12 03:01:00,52.0,51.5,30.36,East,90,4.0,4.0,98,0.00,,,0.00,Weather View 32 v70,2013-10-12 07:01:00,
2013-10-12 03:06:00,52.0,51.2,30.37,ENE,67,1.0,4.0,97,0.00,,,0.00,Weather View 32 v70,2013-10-12 07:06:00,
2013-10-12 03:11:00,52.0,51.2,30.38,SE,135,5.0,5.0,97,0.00,,,0.00,Weather View 32 v70,2013-10-12 07:11:00,
2013-10-12 03:17:00,52.0,51.2,30.38,ENE,67,4.0,7.0,97,0.00,,,0.00,Weather View 32 v70,2013-10-12 07:17:00,
2013-10-12 03:26:00,52.0,51.2,30.38,NNW,337,1.0,7.0,97,0.00,,,0.00,Weather View 32 v70,2013-10-12 07:26:00,
2013-10-12 03:31:00,52.0,51.2,30.38,SSE,157,0.0,7.0,97,0.00,,,0.00,Weather View 32 v70,2013-10-12 07:31:00,
2013-10-12 03:36:00,53.0,51.6,30.39,East,90,5.0,7.0,95,0.00,,,0.00,Weather View 32 v70,2013-10-12 07:36:00,
2013-10-12 03:42:00,53.0,51.6,30.40,NE,45,6.0,7.0,95,0.00,,,0.00,Weather View 32 v70,2013-10-12 07:42:00,
2013-10-12 03:47:00,53.0,51.6,30.40,SSE,157,4.0,7.0,95,0.00,,,0.00,Weather View 32 v70,2013-10-12 07:47:00,
2013-10-12 03:52:00,53.0,51.3,30.40,East,90,6.0,7.0,94,0.00,,,0.00,Weather View 32 v70,2013-10-12 07:52:00,
2013-10-12 03:58:00,53.0,51.3,30.41,ESE,112,1.0,7.0,94,0.00,,,0.00,Weather View 32 v70,2013-10-12 07:58:00,
2013-10-12 04:03:00,53.0,51.3,30.41,NE,45,7.0,7.0,94,0.00,,,0.00,Weather View 32 v70,2013-10-12 08:03:00,
2013-10-12 04:18:00,53.0,51.0,30.41,ENE,67,6.0,7.0,93,0.00,,,0.00,Weather View 32 v70,2013-10-12 08:18:00,
2013-10-12 04:33:00,52.0,50.0,30.41,SE,135,0.0,7.0,93,0.00,,,0.00,Weather View 32 v70,2013-10-12 08:33:00,
2013-10-12 04:38:00,52.0,50.3,30.41,NE,45,3.0,7.0,94,0.00,,,0.00,Weather View 32 v70,2013-10-12 08:38:00,
2013-10-12 04:43:00,52.0,50.6,30.41,East,90,3.0,7.0,95,0.00,,,0.00,Weather View 32 v70,2013-10-12 08:43:00,
2013-10-12 04:51:00,52.0,50.3,30.42,East,90,2.0,7.0,94,0.00,,,0.00,Weather View 32 v70,2013-10-12 08:51:00,
2013-10-12 04:56:00,52.0,50.6,30.42,ESE,112,3.0,7.0,95,0.00,,,0.00,Weather View 32 v70,2013-10-12 08:56:00,
2013-10-12 05:01:00,52.0,50.6,30.41,SSE,157,4.0,7.0,95,0.00,,,0.00,Weather View 32 v70,2013-10-12 09:01:00,
2013-10-12 05:07:00,52.0,50.3,30.42,East,90,3.0,7.0,94,0.00,,,0.00,Weather View 32 v70,2013-10-12 09:07:00,
2013-10-12 05:12:00,52.0,50.3,30.42,NNE,22,3.0,6.0,94,0.00,,,0.00,Weather View 32 v70,2013-10-12 09:12:00,
2013-10-12 05:17:00,52.0,50.6,30.42,NNE,22,4.0,6.0,95,0.00,,,0.00,Weather View 32 v70,2013-10-12 09:17:00,
2013-10-12 05:22:00,52.0,50.6,30.43,NE,45,6.0,6.0,95,0.00,,,0.00,Weather View 32 v70,2013-10-12 09:22:00,
2013-10-12 05:27:00,52.0,50.6,30.43,WNW,292,4.0,6.0,95,0.00,,,0.00,Weather View 32 v70,2013-10-12 09:27:00,
2013-10-12 05:32:00,51.0,49.6,30.43,ESE,112,1.0,6.0,95,0.00,,,0.00,Weather View 32 v70,2013-10-12 09:32:00,
2013-10-12 05:37:00,51.0,49.6,30.43,NE,45,0.0,6.0,95,0.00,,,0.00,Weather View 32 v70,2013-10-12 09:37:00,
2013-10-12 05:49:00,51.0,49.6,30.43,East,90,2.0,6.0,95,0.00,,,0.00,Weather View 32 v70,2013-10-12 09:49:00,
2013-10-12 05:54:00,51.0,49.6,30.43,East,90,0.0,6.0,95,0.00,,,0.00,Weather View 32 v70,2013-10-12 09:54:00,
2013-10-12 05:59:00,51.0,49.6,30.43,South,180,1.0,6.0,95,0.00,,,0.00,Weather View 32 v70,2013-10-12 09:59:00,
2013-10-12 06:04:00,51.0,49.6,30.43,ENE,67,2.0,6.0,95,0.00,,,0.00,Weather View 32 v70,2013-10-12 10:04:00,
2013-10-12 06:10:00,51.0,49.6,30.44,NNE,22,0.0,6.0,95,0.00,,,0.00,Weather View 32 v70,2013-10-12 10:10:00,
2013-10-12 06:15:00,51.0,49.3,30.44,East,90,1.0,6.0,94,0.00,,,0.00,Weather View 32 v70,2013-10-12 10:15:00,
2013-10-12 06:20:00,51.0,49.3,30.45,NE,45,0.0,6.0,94,0.00,,,0.00,Weather View 32 v70,2013-10-12 10:20:00,
2013-10-12 06:25:00,51.0,49.0,30.45,NE,45,4.0,6.0,93,0.00,,,0.00,Weather View 32 v70,2013-10-12 10:25:00,
2013-10-12 06:34:00,51.0,49.3,30.45,NE,45,0.0,5.0,94,0.00,,,0.00,Weather View 32 v70,2013-10-12 10:34:00,
2013-10-12 06:39:00,51.0,49.3,30.45,NW,315,0.0,5.0,94,0.00,,,0.00,Weather View 32 v70,2013-10-12 10:39:00,
2013-10-12 06:44:00,51.0,49.3,30.45,NW,315,0.0,5.0,94,0.00,,,0.00,Weather View 32 v70,2013-10-12 10:44:00,
2013-10-12 06:50:00,51.0,49.6,30.45,NNE,22,0.0,5.0,95,0.00,,,0.00,Weather View 32 v70,2013-10-12 10:50:00,
2013-10-12 06:59:00,52.0,50.0,30.46,SE,135,2.0,5.0,93,0.00,,,0.00,Weather View 32 v70,2013-10-12 10:59:00,
2013-10-12 07:04:00,52.0,49.4,30.47,East,90,9.0,9.0,91,0.00,,,0.00,Weather View 32 v70,2013-10-12 11:04:00,
2013-10-12 07:09:00,52.0,49.2,30.47,East,90,6.0,9.0,90,0.00,,,0.00,Weather View 32 v70,2013-10-12 11:09:00,
2013-10-12 07:17:00,52.0,49.2,30.49,NE,45,3.0,9.0,90,0.00,,,0.00,Weather View 32 v70,2013-10-12 11:17:00,
2013-10-12 07:27:00,52.0,49.2,30.49,North,360,2.0,9.0,90,0.00,,,0.00,Weather View 32 v70,2013-10-12 11:27:00,
2013-10-12 07:32:00,52.0,49.2,30.49,ENE,67,0.0,9.0,90,0.00,,,0.00,Weather View 32 v70,2013-10-12 11:32:00,
2013-10-12 07:37:00,52.0,48.9,30.49,East,90,0.0,9.0,89,0.00,,,0.00,Weather View 32 v70,2013-10-12 11:37:00,
2013-10-12 07:48:00,52.0,48.5,30.51,East,90,2.0,9.0,88,0.00,,,0.00,Weather View 32 v70,2013-10-12 11:48:00,
2013-10-12 07:54:00,52.0,48.2,30.52,NE,45,5.0,9.0,87,0.00,,,0.00,Weather View 32 v70,2013-10-12 11:54:00,
2013-10-12 07:59:00,52.0,48.2,30.52,ESE,112,7.0,9.0,87,0.00,,,0.00,Weather View 32 v70,2013-10-12 11:59:00,
2013-10-12 08:10:00,52.0,48.2,30.53,ESE,112,4.0,9.0,87,0.00,,,0.00,Weather View 32 v70,2013-10-12 12:10:00,
2013-10-12 08:15:00,52.0,48.2,30.53,ESE,112,1.0,9.0,87,0.00,,,0.00,Weather View 32 v70,2013-10-12 12:15:00,
2013-10-12 08:20:00,52.0,48.2,30.53,SE,135,5.0,9.0,87,0.00,,,0.00,Weather View 32 v70,2013-10-12 12:20:00,
2013-10-12 08:25:00,52.0,47.6,30.54,ESE,112,4.0,9.0,85,0.00,,,0.00,Weather View 32 v70,2013-10-12 12:25:00,
2013-10-12 08:37:00,52.0,47.0,30.53,ESE,112,5.0,9.0,83,0.00,,,0.00,Weather View 32 v70,2013-10-12 12:37:00,
2013-10-12 08:42:00,52.0,47.0,30.53,SE,135,5.0,7.0,83,0.00,,,0.00,Weather View 32 v70,2013-10-12 12:42:00,
2013-10-12 08:47:00,52.0,47.0,30.54,South,180,2.0,7.0,83,0.00,,,0.00,Weather View 32 v70,2013-10-12 12:47:00,
2013-10-12 08:52:00,52.0,46.7,30.54,ENE,67,7.0,7.0,82,0.00,,,0.00,Weather View 32 v70,2013-10-12 12:52:00,
2013-10-12 09:00:00,52.0,46.7,30.54,ENE,67,5.0,7.0,82,0.00,,,0.00,Weather View 32 v70,2013-10-12 13:00:00,
2013-10-12 09:05:00,52.0,47.0,30.55,SE,135,4.0,7.0,83,0.00,,,0.00,Weather View 32 v70,2013-10-12 13:05:00,
2013-10-12 09:12:00,53.0,47.6,30.55,ENE,67,11.0,11.0,82,0.00,,,0.00,Weather View 32 v70,2013-10-12 13:12:00,
2013-10-12 09:21:00,52.0,47.0,30.55,NNE,22,6.0,11.0,83,0.00,,,0.00,Weather View 32 v70,2013-10-12 13:21:00,
2013-10-12 09:26:00,52.0,47.0,30.55,ESE,112,5.0,11.0,83,0.00,,,0.00,Weather View 32 v70,2013-10-12 13:26:00,
2013-10-12 09:31:00,52.0,47.0,30.55,East,90,6.0,11.0,83,0.00,,,0.00,Weather View 32 v70,2013-10-12 13:31:00,
2013-10-12 09:39:00,52.0,47.0,30.56,NE,45,3.0,11.0,83,0.00,,,0.00,Weather View 32 v70,2013-10-12 13:39:00,
2013-10-12 09:53:00,52.0,46.7,30.56,ENE,67,7.0,11.0,82,0.00,,,0.00,Weather View 32 v70,2013-10-12 13:53:00,
2013-10-12 09:58:00,52.0,46.7,30.56,ENE,67,2.0,11.0,82,0.00,,,0.00,Weather View 32 v70,2013-10-12 13:58:00,
2013-10-12 10:03:00,52.0,46.7,30.56,ENE,67,4.0,11.0,82,0.00,,,0.00,Weather View 32 v70,2013-10-12 14:03:00,
2013-10-12 10:13:00,52.0,46.7,30.57,ESE,112,0.0,11.0,82,0.00,,,0.00,Weather View 32 v70,2013-10-12 14:13:00,
2013-10-12 10:18:00,52.0,46.3,30.57,East,90,6.0,7.0,81,0.00,,,0.00,Weather View 32 v70,2013-10-12 14:18:00,
2013-10-12 10:23:00,52.0,46.0,30.57,ESE,112,3.0,7.0,80,0.00,,,0.00,Weather View 32 v70,2013-10-12 14:23:00,
2013-10-12 10:28:00,52.0,45.7,30.57,East,90,7.0,7.0,79,0.00,,,0.00,Weather View 32 v70,2013-10-12 14:28:00,
2013-10-12 10:33:00,52.0,45.3,30.56,SE,135,3.0,7.0,78,0.00,,,0.00,Weather View 32 v70,2013-10-12 14:33:00,
2013-10-12 10:38:00,52.0,45.3,30.56,ENE,67,2.0,7.0,78,0.00,,,0.00,Weather View 32 v70,2013-10-12 14:38:00,
2013-10-12 10:43:00,53.0,45.6,30.58,ESE,112,3.0,7.0,76,0.00,,,0.00,Weather View 32 v70,2013-10-12 14:43:00,
2013-10-12 10:49:00,53.0,45.3,30.58,East,90,5.0,7.0,75,0.00,,,0.00,Weather View 32 v70,2013-10-12 14:49:00,
2013-10-12 10:54:00,53.0,45.3,30.58,NE,45,3.0,7.0,75,0.00,,,0.00,Weather View 32 v70,2013-10-12 14:54:00,
2013-10-12 11:05:00,53.0,44.9,30.58,SW,225,2.0,7.0,74,0.00,,,0.00,Weather View 32 v70,2013-10-12 15:05:00,
2013-10-12 11:10:00,54.0,45.9,30.59,East,90,3.0,7.0,74,0.00,,,0.00,Weather View 32 v70,2013-10-12 15:10:00,
2013-10-12 11:15:00,54.0,45.5,30.59,ESE,112,1.0,7.0,73,0.00,,,0.00,Weather View 32 v70,2013-10-12 15:15:00,
2013-10-12 11:20:00,54.0,45.5,30.59,SW,225,2.0,7.0,73,0.00,,,0.00,Weather View 32 v70,2013-10-12 15:20:00,
2013-10-12 11:26:00,54.0,45.2,30.61,NE,45,1.0,7.0,72,0.00,,,0.00,Weather View 32 v70,2013-10-12 15:26:00,
2013-10-12 11:31:00,54.0,44.8,30.61,SE,135,4.0,7.0,71,0.00,,,0.00,Weather View 32 v70,2013-10-12 15:31:00,
2013-10-12 11:36:00,54.0,45.2,30.61,ENE,67,2.0,7.0,72,0.00,,,0.00,Weather View 32 v70,2013-10-12 15:36:00,
2013-10-12 11:41:00,55.0,45.0,30.62,NW,315,4.0,7.0,69,0.00,,,0.00,Weather View 32 v70,2013-10-12 15:41:00,
2013-10-12 11:46:00,56.0,45.6,30.61,East,90,3.0,7.0,68,0.00,,,0.00,Weather View 32 v70,2013-10-12 15:46:00,
2013-10-12 11:51:00,55.0,45.4,30.61,NW,315,2.0,7.0,70,0.00,,,0.00,Weather View 32 v70,2013-10-12 15:51:00,
2013-10-12 11:56:00,55.0,45.0,30.61,ENE,67,6.0,7.0,69,0.00,,,0.00,Weather View 32 v70,2013-10-12 15:56:00,
2013-10-12 12:01:00,54.0,44.4,30.61,NE,45,2.0,7.0,70,0.00,,,0.00,Weather View 32 v70,2013-10-12 16:01:00,
2013-10-12 12:06:00,55.0,45.4,30.62,NNE,22,3.0,7.0,70,0.00,,,0.00,Weather View 32 v70,2013-10-12 16:06:00,
2013-10-12 12:11:00,55.0,44.6,30.62,East,90,1.0,7.0,68,0.00,,,0.00,Weather View 32 v70,2013-10-12 16:11:00,
2013-10-12 12:16:00,56.0,45.6,30.62,South,180,0.0,7.0,68,0.00,,,0.00,Weather View 32 v70,2013-10-12 16:16:00,
2013-10-12 12:21:00,56.0,45.2,30.62,ENE,67,6.0,8.0,67,0.00,,,0.00,Weather View 32 v70,2013-10-12 16:21:00,
2013-10-12 12:26:00,56.0,44.8,30.62,NNE,22,0.0,8.0,66,0.00,,,0.00,Weather View 32 v70,2013-10-12 16:26:00,
2013-10-12 12:31:00,56.0,44.4,30.62,NE,45,3.0,9.0,65,0.00,,,0.00,Weather View 32 v70,2013-10-12 16:31:00,
2013-10-12 12:36:00,58.0,45.9,30.62,NE,45,5.0,9.0,64,0.00,,,0.00,Weather View 32 v70,2013-10-12 16:36:00,
2013-10-12 12:41:00,58.0,45.0,30.63,NE,45,6.0,9.0,62,0.00,,,0.00,Weather View 32 v70,2013-10-12 16:41:00,
2013-10-12 12:46:00,57.0,44.1,30.63,ESE,112,7.0,9.0,62,0.00,,,0.00,Weather View 32 v70,2013-10-12 16:46:00,
2013-10-12 12:51:00,57.0,44.5,30.63,NNW,337,5.0,9.0,63,0.00,,,0.00,Weather View 32 v70,2013-10-12 16:51:00,
2013-10-12 12:56:00,58.0,45.0,30.63,SE,135,2.0,9.0,62,0.00,,,0.00,Weather View 32 v70,2013-10-12 16:56:00,
2013-10-12 13:01:00,58.0,45.0,30.63,NNE,22,4.0,9.0,62,0.00,,,0.00,Weather View 32 v70,2013-10-12 17:01:00,
2013-10-12 13:06:00,57.0,44.1,30.63,SE,135,12.0,12.0,62,0.00,,,0.00,Weather View 32 v70,2013-10-12 17:06:00,
2013-10-12 13:11:00,57.0,44.5,30.63,SSE,157,7.0,12.0,63,0.00,,,0.00,Weather View 32 v70,2013-10-12 17:11:00,
2013-10-12 13:16:00,57.0,44.5,30.63,East,90,2.0,12.0,63,0.00,,,0.00,Weather View 32 v70,2013-10-12 17:16:00,
2013-10-12 13:24:00,58.0,44.6,30.63,WNW,292,2.0,12.0,61,0.00,,,0.00,Weather View 32 v70,2013-10-12 17:24:00,
2013-10-12 13:29:00,57.0,43.7,30.63,East,90,5.0,12.0,61,0.00,,,0.00,Weather View 32 v70,2013-10-12 17:29:00,
2013-10-12 13:34:00,58.0,44.6,30.63,ENE,67,1.0,12.0,61,0.00,,,0.00,Weather View 32 v70,2013-10-12 17:34:00,
2013-10-12 13:42:00,58.0,44.6,30.61,ENE,67,6.0,12.0,61,0.00,,,0.00,Weather View 32 v70,2013-10-12 17:42:00,
2013-10-12 13:47:00,58.0,44.6,30.61,NNW,337,3.0,12.0,61,0.00,,,0.00,Weather View 32 v70,2013-10-12 17:47:00,
2013-10-12 13:56:00,59.0,44.2,30.62,NNE,22,3.0,12.0,58,0.00,,,0.00,Weather View 32 v70,2013-10-12 17:56:00,
2013-10-12 14:01:00,59.0,44.2,30.62,SSW,202,3.0,12.0,58,0.00,,,0.00,Weather View 32 v70,2013-10-12 18:01:00,
2013-10-12 14:06:00,58.0,43.7,30.60,NNE,22,10.0,12.0,59,0.00,,,0.00,Weather View 32 v70,2013-10-12 18:06:00,
2013-10-12 14:11:00,59.0,44.7,30.61,NNE,22,1.0,12.0,59,0.00,,,0.00,Weather View 32 v70,2013-10-12 18:11:00,
2013-10-12 14:16:00,59.0,43.8,30.62,NNE,22,7.0,10.0,57,0.00,,,0.00,Weather View 32 v70,2013-10-12 18:16:00,
2013-10-12 14:21:00,59.0,44.2,30.62,North,360,0.0,10.0,58,0.00,,,0.00,Weather View 32 v70,2013-10-12 18:21:00,
2013-10-12 14:27:00,59.0,43.8,30.61,NE,45,7.0,10.0,57,0.00,,,0.00,Weather View 32 v70,2013-10-12 18:27:00,
2013-10-12 14:35:00,60.0,44.7,30.62,South,180,0.0,10.0,57,0.00,,,0.00,Weather View 32 v70,2013-10-12 18:35:00,
2013-10-12 14:40:00,60.0,44.7,30.63,NNE,22,1.0,10.0,57,0.00,,,0.00,Weather View 32 v70,2013-10-12 18:40:00,
2013-10-12 14:49:00,59.0,43.3,30.63,East,90,6.0,10.0,56,0.00,,,0.00,Weather View 32 v70,2013-10-12 18:49:00,
2013-10-12 14:57:00,60.0,44.2,30.62,West,270,0.0,10.0,56,0.00,,,0.00,Weather View 32 v70,2013-10-12 18:57:00,
2013-10-12 15:03:00,60.0,44.7,30.62,ENE,67,4.0,10.0,57,0.00,,,0.00,Weather View 32 v70,2013-10-12 19:03:00,
2013-10-12 15:08:00,59.0,43.3,30.62,SE,135,5.0,10.0,56,0.00,,,0.00,Weather View 32 v70,2013-10-12 19:08:00,
2013-10-12 15:13:00,59.0,43.8,30.61,NE,45,2.0,8.0,57,0.00,,,0.00,Weather View 32 v70,2013-10-12 19:13:00,
2013-10-12 15:19:00,59.0,43.8,30.61,ENE,67,5.0,8.0,57,0.00,,,0.00,Weather View 32 v70,2013-10-12 19:19:00,
2013-10-12 15:24:00,59.0,43.8,30.61,ENE,67,6.0,8.0,57,0.00,,,0.00,Weather View 32 v70,2013-10-12 19:24:00,
2013-10-12 15:29:00,60.0,44.2,30.61,SE,135,0.0,8.0,56,0.00,,,0.00,Weather View 32 v70,2013-10-12 19:29:00,
2013-10-12 15:34:00,60.0,43.7,30.62,East,90,3.0,8.0,55,0.00,,,0.00,Weather View 32 v70,2013-10-12 19:34:00,
2013-10-12 15:39:00,60.0,44.7,30.63,South,180,5.0,8.0,57,0.00,,,0.00,Weather View 32 v70,2013-10-12 19:39:00,
2013-10-12 15:46:00,59.0,42.8,30.63,SE,135,3.0,8.0,55,0.00,,,0.00,Weather View 32 v70,2013-10-12 19:46:00,
2013-10-12 15:51:00,58.0,43.7,30.63,SE,135,6.0,7.0,59,0.00,,,0.00,Weather View 32 v70,2013-10-12 19:51:00,
2013-10-12 15:56:00,59.0,43.3,30.63,SE,135,6.0,7.0,56,0.00,,,0.00,Weather View 32 v70,2013-10-12 19:56:00,
2013-10-12 16:01:00,59.0,44.2,30.63,SE,135,6.0,7.0,58,0.00,,,0.00,Weather View 32 v70,2013-10-12 20:01:00,
2013-10-12 16:07:00,60.0,44.2,30.63,SSE,157,2.0,7.0,56,0.00,,,0.00,Weather View 32 v70,2013-10-12 20:07:00,
2013-10-12 16:12:00,59.0,43.8,30.63,SSE,157,6.0,9.0,57,0.00,,,0.00,Weather View 32 v70,2013-10-12 20:12:00,
2013-10-12 16:17:00,58.0,43.7,30.63,SE,135,4.0,9.0,59,0.00,,,0.00,Weather View 32 v70,2013-10-12 20:17:00,
2013-10-12 16:22:00,57.0,43.2,30.61,SSE,157,2.0,9.0,60,0.00,,,0.00,Weather View 32 v70,2013-10-12 20:22:00,
2013-10-12 16:27:00,57.0,43.2,30.63,SE,135,4.0,9.0,60,0.00,,,0.00,Weather View 32 v70,2013-10-12 20:27:00,
2013-10-12 16:37:00,56.0,42.7,30.61,ESE,112,4.0,9.0,61,0.00,,,0.00,Weather View 32 v70,2013-10-12 20:37:00,
2013-10-12 16:42:00,56.0,42.7,30.59,SE,135,7.0,9.0,61,0.00,,,0.00,Weather View 32 v70,2013-10-12 20:42:00,
2013-10-12 16:47:00,56.0,43.1,30.60,ESE,112,6.0,9.0,62,0.00,,,0.00,Weather View 32 v70,2013-10-12 20:47:00,
2013-10-12 16:52:00,55.0,42.2,30.59,ESE,112,6.0,9.0,62,0.00,,,0.00,Weather View 32 v70,2013-10-12 20:52:00,
2013-10-12 16:57:00,55.0,42.6,30.59,SE,135,6.0,9.0,63,0.00,,,0.00,Weather View 32 v70,2013-10-12 20:57:00,
2013-10-12 17:02:00,55.0,42.6,30.59,SE,135,4.0,9.0,63,0.00,,,0.00,Weather View 32 v70,2013-10-12 21:02:00,
2013-10-12 17:07:00,55.0,42.6,30.59,SE,135,4.0,9.0,63,0.00,,,0.00,Weather View 32 v70,2013-10-12 21:07:00,
2013-10-12 17:12:00,55.0,43.0,30.59,SE,135,3.0,7.0,64,0.00,,,0.00,Weather View 32 v70,2013-10-12 21:12:00,
2013-10-12 17:17:00,55.0,43.0,30.59,SE,135,6.0,7.0,64,0.00,,,0.00,Weather View 32 v70,2013-10-12 21:17:00,
2013-10-12 17:22:00,54.0,42.1,30.59,SSE,157,3.0,7.0,64,0.00,,,0.00,Weather View 32 v70,2013-10-12 21:22:00,
2013-10-12 17:35:00,54.0,42.9,30.58,SE,135,3.0,7.0,66,0.00,,,0.00,Weather View 32 v70,2013-10-12 21:35:00,
2013-10-12 17:40:00,54.0,43.3,30.58,SE,135,5.0,7.0,67,0.00,,,0.00,Weather View 32 v70,2013-10-12 21:40:00,
2013-10-12 18:00:00,53.0,43.1,30.58,SE,135,4.0,6.0,69,0.00,,,0.00,Weather View 32 v70,2013-10-12 22:00:00,
2013-10-12 18:07:00,53.0,43.1,30.57,SSE,157,0.0,6.0,69,0.00,,,0.00,Weather View 32 v70,2013-10-12 22:07:00,
2013-10-12 18:14:00,53.0,43.1,30.57,SSE,157,0.0,6.0,69,0.00,,,0.00,Weather View 32 v70,2013-10-12 22:14:00,
2013-10-12 18:23:00,52.0,43.2,30.57,SSE,157,3.0,5.0,72,0.00,,,0.00,Weather View 32 v70,2013-10-12 22:23:00,
2013-10-12 18:35:00,51.0,42.6,30.56,SSE,157,2.0,5.0,73,0.00,,,0.00,Weather View 32 v70,2013-10-12 22:35:00,
2013-10-12 18:50:00,51.0,42.6,30.56,SSE,157,0.0,4.0,73,0.00,,,0.00,Weather View 32 v70,2013-10-12 22:50:00,
2013-10-12 18:55:00,51.0,43.0,30.56,SSE,157,0.0,4.0,74,0.00,,,0.00,Weather View 32 v70,2013-10-12 22:55:00,
2013-10-12 19:11:00,50.0,43.4,30.55,SSE,157,0.0,3.0,78,0.00,,,0.00,Weather View 32 v70,2013-10-12 23:11:00,
2013-10-12 19:16:00,50.0,43.4,30.55,SSE,157,0.0,3.0,78,0.00,,,0.00,Weather View 32 v70,2013-10-12 23:16:00,
2013-10-12 19:21:00,49.0,42.4,30.54,SSE,157,0.0,3.0,78,0.00,,,0.00,Weather View 32 v70,2013-10-12 23:21:00,
2013-10-12 19:26:00,49.0,43.1,30.54,SSE,157,0.0,3.0,80,0.00,,,0.00,Weather View 32 v70,2013-10-12 23:26:00,
2013-10-12 19:31:00,49.0,44.1,30.54,SSE,157,0.0,2.0,83,0.00,,,0.00,Weather View 32 v70,2013-10-12 23:31:00,
2013-10-12 19:37:00,49.0,43.7,30.54,SSE,157,0.0,2.0,82,0.00,,,0.00,Weather View 32 v70,2013-10-12 23:37:00,
2013-10-12 19:42:00,49.0,44.1,30.54,SSE,157,0.0,0.0,83,0.00,,,0.00,Weather View 32 v70,2013-10-12 23:42:00,
2013-10-12 19:47:00,49.0,44.1,30.54,SSE,157,0.0,0.0,83,0.00,,,0.00,Weather View 32 v70,2013-10-12 23:47:00,
2013-10-12 19:53:00,48.0,43.7,30.53,SSE,157,1.0,0.0,85,0.00,,,0.00,Weather View 32 v70,2013-10-12 23:53:00,
2013-10-12 20:01:00,48.0,43.7,30.53,SSE,157,1.0,1.0,85,0.00,,,0.00,Weather View 32 v70,2013-10-13 00:01:00,
2013-10-12 20:06:00,48.0,44.3,30.53,SSE,157,1.0,1.0,87,0.00,,,0.00,Weather View 32 v70,2013-10-13 00:06:00,
2013-10-12 20:12:00,48.0,44.3,30.53,SSE,157,0.0,1.0,87,0.00,,,0.00,Weather View 32 v70,2013-10-13 00:12:00,
2013-10-12 20:23:00,46.0,42.3,30.53,SSE,157,0.0,1.0,87,0.00,,,0.00,Weather View 32 v70,2013-10-13 00:23:00,
2013-10-12 20:28:00,46.0,42.6,30.53,SSE,157,0.0,1.0,88,0.00,,,0.00,Weather View 32 v70,2013-10-13 00:28:00,
2013-10-12 20:33:00,46.0,42.9,30.53,SSE,157,0.0,1.0,89,0.00,,,0.00,Weather View 32 v70,2013-10-13 00:33:00,
2013-10-12 20:41:00,45.0,42.2,30.52,SSE,157,0.0,1.0,90,0.00,,,0.00,Weather View 32 v70,2013-10-13 00:41:00,
2013-10-12 20:46:00,45.0,42.2,30.52,SSE,157,0.0,1.0,90,0.00,,,0.00,Weather View 32 v70,2013-10-13 00:46:00,
2013-10-12 20:51:00,45.0,42.2,30.53,SSE,157,0.0,1.0,90,0.00,,,0.00,Weather View 32 v70,2013-10-13 00:51:00,
2013-10-12 20:56:00,44.0,41.5,30.53,SSE,157,0.0,1.0,91,0.00,,,0.00,Weather View 32 v70,2013-10-13 00:56:00,
2013-10-12 21:08:00,44.0,41.8,30.52,SSE,157,0.0,1.0,92,0.00,,,0.00,Weather View 32 v70,2013-10-13 01:08:00,
2013-10-12 21:13:00,44.0,42.1,30.52,SSE,157,0.0,0.0,93,0.00,,,0.00,Weather View 32 v70,2013-10-13 01:13:00,
2013-10-12 21:23:00,44.0,42.4,30.52,SSE,157,0.0,0.0,94,0.00,,,0.00,Weather View 32 v70,2013-10-13 01:23:00,
2013-10-12 21:28:00,44.0,42.7,30.52,ENE,67,0.0,0.0,95,0.00,,,0.00,Weather View 32 v70,2013-10-13 01:28:00,
2013-10-12 21:33:00,44.0,42.7,30.51,ENE,67,0.0,0.0,95,0.00,,,0.00,Weather View 32 v70,2013-10-13 01:33:00,
2013-10-12 21:47:00,44.0,42.7,30.51,ENE,67,0.0,0.0,95,0.00,,,0.00,Weather View 32 v70,2013-10-13 01:47:00,
2013-10-12 21:52:00,44.0,42.7,30.51,ENE,67,0.0,0.0,95,0.00,,,0.00,Weather View 32 v70,2013-10-13 01:52:00,
2013-10-12 21:57:00,43.0,41.7,30.51,ENE,67,0.0,0.0,95,0.00,,,0.00,Weather View 32 v70,2013-10-13 01:57:00,
2013-10-12 22:02:00,43.0,41.7,30.50,NE,45,0.0,0.0,95,0.00,,,0.00,Weather View 32 v70,2013-10-13 02:02:00,
2013-10-12 22:07:00,43.0,41.7,30.50,NE,45,0.0,0.0,95,0.00,,,0.00,Weather View 32 v70,2013-10-13 02:07:00,
2013-10-12 22:13:00,44.0,42.9,30.50,NNE,22,2.0,0.0,96,0.00,,,0.00,Weather View 32 v70,2013-10-13 02:13:00,
2013-10-12 22:18:00,44.0,42.9,30.50,NE,45,3.0,3.0,96,0.00,,,0.00,Weather View 32 v70,2013-10-13 02:18:00,
2013-10-12 22:31:00,43.0,42.2,30.50,NNE,22,3.0,3.0,97,0.00,,,0.00,Weather View 32 v70,2013-10-13 02:31:00,
2013-10-12 22:36:00,43.0,42.5,30.51,NNE,22,1.0,3.0,98,0.00,,,0.00,Weather View 32 v70,2013-10-13 02:36:00,
2013-10-12 23:02:00,43.0,41.9,30.48,North,360,1.0,3.0,96,0.00,,,0.00,Weather View 32 v70,2013-10-13 03:02:00,
2013-10-12 23:07:00,43.0,42.2,30.48,North,360,0.0,3.0,97,0.00,,,0.00,Weather View 32 v70,2013-10-13 03:07:00,
2013-10-12 23:19:00,42.0,41.2,30.45,North,360,0.0,3.0,97,0.00,,,0.00,Weather View 32 v70,2013-10-13 03:19:00,
2013-10-12 23:25:00,42.0,41.5,30.47,North,360,0.0,3.0,98,0.00,,,0.00,Weather View 32 v70,2013-10-13 03:25:00,
2013-10-12 23:30:00,41.0,40.2,30.46,North,360,0.0,3.0,97,0.00,,,0.00,Weather View 32 v70,2013-10-13 03:30:00,
2013-10-12 23:35:00,41.0,40.2,30.46,North,360,0.0,3.0,97,0.00,,,0.00,Weather View 32 v70,2013-10-13 03:35:00,
2013-10-12 23:42:00,41.0,40.2,30.46,North,360,0.0,1.0,97,0.00,,,0.00,Weather View 32 v70,2013-10-13 03:42:00,
2013-10-12 23:48:00,41.0,39.9,30.46,North,360,0.0,1.0,96,0.00,,,0.00,Weather View 32 v70,2013-10-13 03:48:00,
2013-10-12 23:53:00,41.0,40.2,30.46,North,360,0.0,1.0,97,0.00,,,0.00,Weather View 32 v70,2013-10-13 03:53:00,
2013-10-12 23:58:00,41.0,40.2,30.46,North,360,1.0,1.0,97,0.00,,,0.00,Weather View 32 v70,2013-10-13 03:58:00,